Thunderstorms From: 21-05-2018 15:00 Until: 22-05-2018 15:00 warning for: Thunderstorms Level: Yellow info button

Although rather usual in this region, locally or potentially dangerous phenomena are expected. (such as local winds, summer thunderstorms, rising streams or high waves) Be aware and pay attention to the latest weather updates, especially if you carry out activities exposed to weather or close to a stream or shoreline. 


Meteo18 Weather Cam more information Meteo18 Weather Cam


warning for Thunderstorms more information blitzortung!


Rain radar more information rain snow radar


Visit our other weather sites:

Template documentation
and downloads

And another site



Weather Underground History page Text

Daily Summary for August 6, 2017 Units:  Metric    English   Both
« Previous Day
Next Day »
Daily Weekly Monthly Yearly Custom
  High: Low: Average:
Temperature: -17.8 °C -9.6 °C -7.4 °C
Dew Point: -17.8 °C -13.3 °C -12.4 °C
Humidity: Humidity % 37 % 57 %
Wind Speed: 0 km/h 0 km/h 8.2 km/h
Wind Gust: 0 km/h - -
Wind:- - South
Pressure: 0 hPa 34611.7 hPa -
Precipitation: 0 mm    
Historical Graphs
 
 
Tabular Data for August 6, 2017
Time Temperature Dew Point Pressure Wind Wind Speed Wind Gust Humidity Rainfall Rate (Hourly)
-17.8 °C -17.8 °C 0 hPa Calm     Humidity % 0 mm
00:02 -8.2 °C -11.8 °C 34625.2 hPa NW 5.1 km/h 18.2 km/h 65 % 0 mm
00:12 -8.2 °C -11.9 °C 34625.2 hPa NW 10.3 km/h 15.6 km/h 65 % 0 mm
00:17 -8.3 °C -11.9 °C 34625.2 hPa NW 5.1 km/h 15.6 km/h 65 % 0 mm
00:27 -8.3 °C -12 °C 34625.2 hPa NW 7.7 km/h 15.6 km/h 65 % 0 mm
00:32 -8.4 °C -12.1 °C 34625.2 hPa NW 5.1 km/h 15.6 km/h 65 % 0 mm
00:42 -8.4 °C -12.1 °C 34625.2 hPa West 7.7 km/h 15.6 km/h 65 % 0 mm
00:47 -8.4 °C -12.1 °C 34625.2 hPa NNW 7.7 km/h 18.2 km/h 65 % 0 mm
00:52 -8.4 °C -12.1 °C 34635.4 hPa NW 7.7 km/h 18.2 km/h 65 % 0 mm
00:57 -8.4 °C -12.1 °C 34635.4 hPa North 5.1 km/h 18.2 km/h 65 % 0 mm
01:02 -8.5 °C -12.1 °C 34625.2 hPa Calm   15.6 km/h 66 % 0 mm
01:07 -8.5 °C -12.1 °C 34635.4 hPa NW 2.6 km/h 12.9 km/h 66 % 0 mm
01:12 -8.6 °C -12.1 °C 34635.4 hPa NNW 2.6 km/h 10.3 km/h 66 % 0 mm
01:17 -8.6 °C -12 °C 34635.4 hPa NW 2.6 km/h 15.6 km/h 67 % 0 mm
01:22 -8.6 °C -12 °C 34635.4 hPa WNW 7.7 km/h 15.6 km/h 67 % 0 mm
01:27 -8.6 °C -11.9 °C 34635.4 hPa NNW 10.3 km/h 15.6 km/h 68 % 0 mm
01:32 -8.7 °C -11.8 °C 34635.4 hPa North 2.6 km/h 18.2 km/h 69 % 0 mm
01:37 -8.7 °C -11.9 °C 34635.4 hPa West 5.1 km/h 18.2 km/h 69 % 0 mm
01:42 -8.7 °C -11.9 °C 34635.4 hPa NW 2.6 km/h 18.2 km/h 69 % 0 mm
01:47 -8.8 °C -11.8 °C 34635.4 hPa WNW 2.6 km/h 18.2 km/h 70 % 0 mm
01:52 -8.8 °C -11.9 °C 34635.4 hPa NW 5.1 km/h 12.9 km/h 70 % 0 mm
01:57 -8.8 °C -11.9 °C 34635.4 hPa NNW 7.7 km/h 7.7 km/h 70 % 0 mm
02:02 -8.8 °C -11.9 °C 34635.4 hPa NW 7.7 km/h 18.2 km/h 70 % 0 mm
02:07 -8.9 °C -11.8 °C 34635.4 hPa West 12.9 km/h 18.2 km/h 71 % 0 mm
02:12 -8.9 °C -11.8 °C 34635.4 hPa NW 7.7 km/h 18.2 km/h 71 % 0 mm
02:17 -8.9 °C -12 °C 34635.4 hPa North 7.7 km/h 15.6 km/h 70 % 0 mm
02:22 -8.9 °C -12 °C 34645.6 hPa NNW 5.1 km/h 15.6 km/h 70 % 0 mm
02:32 -9 °C -12.1 °C 34645.6 hPa NNW 5.1 km/h 15.6 km/h 70 % 0 mm
02:37 -9.1 °C -11.9 °C 34645.6 hPa North 5.1 km/h 12.9 km/h 71 % 0 mm
02:42 -9.1 °C -12 °C 34645.6 hPa NNW 5.1 km/h 12.9 km/h 71 % 0 mm
02:47 -9.2 °C -11.9 °C 34645.6 hPa NNW 2.6 km/h 10.3 km/h 72 % 0 mm
02:52 -9.2 °C -12 °C 34645.6 hPa NNW 5.1 km/h 10.3 km/h 72 % 0 mm
02:57 -9.2 °C -12 °C 34645.6 hPa North 2.6 km/h 10.3 km/h 72 % 0 mm
03:02 -9.3 °C -12.1 °C 34645.6 hPa NNW 10.3 km/h 10.3 km/h 72 % 0 mm
03:07 -9.2 °C -12 °C 34645.6 hPa NNW 5.1 km/h 15.6 km/h 72 % 0 mm
03:12 -9.3 °C -11.9 °C 34645.6 hPa North 2.6 km/h 15.6 km/h 73 % 0 mm
03:17 -9.3 °C -11.9 °C 34645.6 hPa NW 2.6 km/h 15.6 km/h 73 % 0 mm
03:22 -9.3 °C -11.9 °C 34645.6 hPa NE 5.1 km/h 15.6 km/h 73 % 0 mm
03:27 -9.2 °C -11.9 °C 34659.1 hPa NNW 12.9 km/h 15.6 km/h 73 % 0 mm
03:32 -9.2 °C -12 °C 34659.1 hPa NNE 12.9 km/h 15.6 km/h 72 % 0 mm
03:37 -9.2 °C -12 °C 34659.1 hPa North 5.1 km/h 15.6 km/h 72 % 0 mm
03:42 -9.2 °C -12 °C 34659.1 hPa Calm   18.2 km/h 72 % 0 mm
03:47 -9.2 °C -12 °C 34659.1 hPa North 5.1 km/h 18.2 km/h 72 % 0 mm
03:52 -9.3 °C -11.9 °C 34659.1 hPa NNE 2.6 km/h 18.2 km/h 73 % 0 mm
03:57 -9.3 °C -12 °C 34659.1 hPa North 2.6 km/h 12.9 km/h 73 % 0 mm
04:02 -9.3 °C -12 °C 34659.1 hPa NNE 7.7 km/h 15.6 km/h 73 % 0 mm
04:07 -9.3 °C -12 °C 34659.1 hPa NE 5.1 km/h 15.6 km/h 73 % 0 mm
04:12 -9.4 °C -12.1 °C 34659.1 hPa North 5.1 km/h 15.6 km/h 73 % 0 mm
04:17 -9.4 °C -12.1 °C 34659.1 hPa NNW 7.7 km/h 15.6 km/h 73 % 0 mm
04:22 -9.4 °C -12.2 °C 34659.1 hPa NNW 12.9 km/h 23.3 km/h 72 % 0 mm
04:27 -9.4 °C -12.2 °C 34659.1 hPa NNE 12.9 km/h 23.3 km/h 72 % 0 mm
04:32 -9.4 °C -12.2 °C 34659.1 hPa North 10.3 km/h 23.3 km/h 72 % 0 mm
04:37 -9.5 °C -12.2 °C 34659.1 hPa North 12.9 km/h 20.8 km/h 73 % 0 mm
04:42 -9.5 °C -12.2 °C 34659.1 hPa NNW 5.1 km/h 18.2 km/h 73 % 0 mm
04:47 -9.5 °C -12.3 °C 34659.1 hPa NW 5.1 km/h 20.8 km/h 72 % 0 mm
04:52 -9.6 °C -12.2 °C 34659.1 hPa NNW 7.7 km/h 20.8 km/h 73 % 0 mm
04:57 -9.6 °C -12.2 °C 34659.1 hPa North 7.7 km/h 20.8 km/h 73 % 0 mm
05:02 -9.6 °C -12.2 °C 34659.1 hPa NNE 5.1 km/h 23.3 km/h 73 % 0 mm
05:07 -9.6 °C -12.2 °C 34659.1 hPa NNW 12.9 km/h 23.3 km/h 73 % 0 mm
05:12 -9.6 °C -12.2 °C 34659.1 hPa NNW 7.7 km/h 23.3 km/h 73 % 0 mm
05:17 -9.6 °C -12.3 °C 34659.1 hPa NNW 15.6 km/h 23.3 km/h 72 % 0 mm
05:22 -9.5 °C -12.3 °C 34659.1 hPa NW 10.3 km/h 23.3 km/h 72 % 0 mm
05:32 -9.6 °C -12.3 °C 34659.1 hPa North 12.9 km/h 23.3 km/h 72 % 0 mm
05:37 -9.6 °C -12.3 °C 34669.3 hPa NW 7.7 km/h 23.3 km/h 72 % 0 mm
05:42 -9.6 °C -12.3 °C 34669.3 hPa NNW 10.3 km/h 20.8 km/h 72 % 0 mm
05:47 -9.6 °C -12.3 °C 34669.3 hPa ENE 12.9 km/h 23.3 km/h 72 % 0 mm
05:52 -9.6 °C -12.3 °C 34669.3 hPa NNW 7.7 km/h 23.3 km/h 72 % 0 mm
05:57 -9.6 °C -12.3 °C 34669.3 hPa North 7.7 km/h 23.3 km/h 72 % 0 mm
06:02 -9.6 °C -12.3 °C 34669.3 hPa NNE 12.9 km/h 18.2 km/h 72 % 0 mm
06:07 -9.6 °C -12.3 °C 34669.3 hPa North 20.8 km/h 20.8 km/h 72 % 0 mm
06:12 -9.5 °C -12.4 °C 34669.3 hPa NNE 12.9 km/h 23.3 km/h 71 % 0 mm
06:17 -9.6 °C -12.3 °C 34669.3 hPa North 7.7 km/h 23.3 km/h 72 % 0 mm
06:22 -9.6 °C -12.3 °C 34669.3 hPa North 5.1 km/h 23.3 km/h 72 % 0 mm
06:32 -9.6 °C -12.3 °C 34669.3 hPa North 15.6 km/h 18.2 km/h 72 % 0 mm
06:37 -9.6 °C -12.3 °C 34669.3 hPa NNW 10.3 km/h 20.8 km/h 72 % 0 mm
06:42 -9.6 °C -12.4 °C 34669.3 hPa NNE 7.7 km/h 20.8 km/h 71 % 0 mm
06:47 -9.6 °C -12.3 °C 34669.3 hPa NNW 5.1 km/h 20.8 km/h 72 % 0 mm
06:52 -9.6 °C -12.3 °C 34669.3 hPa NNW 15.6 km/h 20.8 km/h 72 % 0 mm
06:57 -9.6 °C -12.4 °C 34669.3 hPa NNE 7.7 km/h 23.3 km/h 72 % 0 mm
07:02 -9.6 °C -12.4 °C 34682.8 hPa NE 18.2 km/h 23.3 km/h 72 % 0 mm
07:07 -9.6 °C -12.4 °C 34669.3 hPa NE 5.1 km/h 23.3 km/h 72 % 0 mm
07:12 -9.6 °C -12.4 °C 34682.8 hPa NNE 10.3 km/h 23.3 km/h 72 % 0 mm
07:17 -9.6 °C -12.4 °C 34669.3 hPa NE 10.3 km/h 20.8 km/h 72 % 0 mm
07:22 -9.6 °C -12.3 °C 34682.8 hPa North 10.3 km/h 20.8 km/h 72 % 0 mm
07:27 -9.6 °C -12.3 °C 34682.8 hPa NE 10.3 km/h 23.3 km/h 72 % 0 mm
07:32 -9.6 °C -12.2 °C 34682.8 hPa North 10.3 km/h 23.3 km/h 73 % 0 mm
07:37 -9.5 °C -12.3 °C 34682.8 hPa North 20.8 km/h 23.3 km/h 72 % 0 mm
07:42 -9.4 °C -12.2 °C 34682.8 hPa NE 15.6 km/h 23.3 km/h 72 % 0 mm
07:47 -9.4 °C -12.2 °C 34682.8 hPa North 18.2 km/h 31.1 km/h 72 % 0 mm
07:52 -9.2 °C -12.1 °C 34682.8 hPa NE 18.2 km/h 31.1 km/h 71 % 0 mm
07:57 -9.2 °C -12.1 °C 34682.8 hPa NNW 10.3 km/h 31.1 km/h 71 % 0 mm
08:02 -9.1 °C -12.2 °C 34682.8 hPa North 15.6 km/h 31.1 km/h 70 % 0 mm
08:12 -9.2 °C -12.1 °C 34693 hPa NNW 10.3 km/h 31.1 km/h 71 % 0 mm
08:17 -9.1 °C -12 °C 34693 hPa NE 18.2 km/h 28.5 km/h 71 % 0 mm
08:22 -8.9 °C -11.9 °C 34693 hPa North 10.3 km/h 28.5 km/h 71 % 0 mm
08:27 -8.8 °C -11.9 °C 34703.1 hPa NE 7.7 km/h 33.6 km/h 70 % 0 mm
08:32 -8.9 °C -12 °C 34703.1 hPa NNE 15.6 km/h 33.6 km/h 70 % 0 mm
08:37 -9 °C -11.9 °C 34703.1 hPa North 10.3 km/h 33.6 km/h 71 % 0 mm
08:42 -8.9 °C -11.9 °C 34703.1 hPa NE 10.3 km/h 23.3 km/h 71 % 0 mm
08:47 -8.9 °C -11.8 °C 34703.1 hPa NNE 5.1 km/h 25.9 km/h 71 % 0 mm
08:52 -8.8 °C -11.7 °C 34703.1 hPa NE 10.3 km/h 25.9 km/h 71 % 0 mm
08:57 -8.7 °C -11.7 °C 34716.7 hPa NNW 7.7 km/h 25.9 km/h 71 % 0 mm
09:02 -8.6 °C -11.6 °C 34716.7 hPa NE 12.9 km/h 25.9 km/h 70 % 0 mm
09:07 -8.4 °C -11.6 °C 34716.7 hPa North 15.6 km/h 25.9 km/h 69 % 0 mm
09:12 -8.4 °C -11.6 °C 34716.7 hPa NE 15.6 km/h 36.2 km/h 69 % 0 mm
09:17 -8.4 °C -11.7 °C 34716.7 hPa NW 15.6 km/h 36.2 km/h 68 % 0 mm
09:22 -8.2 °C -11.6 °C 34716.7 hPa NNE 25.9 km/h 36.2 km/h 68 % 0 mm
09:32 -8.2 °C -11.6 °C 34716.7 hPa NNE 10.3 km/h 31.1 km/h 67 % 0 mm
09:37 -8.1 °C -11.6 °C 34716.7 hPa NE 7.7 km/h 31.1 km/h 67 % 0 mm
09:42 -8.1 °C -11.5 °C 34716.7 hPa NNE 28.5 km/h 31.1 km/h 67 % 0 mm
09:47 -8.1 °C -11.7 °C 34716.7 hPa North 15.6 km/h 31.1 km/h 66 % 0 mm
09:52 -8.1 °C -11.6 °C 34716.7 hPa NNE 18.2 km/h 33.6 km/h 66 % 0 mm
09:57 -7.9 °C -11.5 °C 34716.7 hPa NNE 10.3 km/h 33.6 km/h 66 % 0 mm
10:02 -7.8 °C -11.7 °C 34716.7 hPa NE 23.3 km/h 31.1 km/h 64 % 0 mm
10:12 -7.8 °C -11.6 °C 34716.7 hPa NE 7.7 km/h 33.6 km/h 65 % 0 mm
10:17 -7.8 °C -11.6 °C 34716.7 hPa ENE 7.7 km/h 33.6 km/h 65 % 0 mm
10:22 -7.8 °C -11.7 °C 34716.7 hPa ENE 18.2 km/h 31.1 km/h 64 % 0 mm
10:32 -7.6 °C -11.6 °C 34716.7 hPa ENE 10.3 km/h 28.5 km/h 63 % 0 mm
10:37 -7.6 °C -11.6 °C 34716.7 hPa East 10.3 km/h 28.5 km/h 63 % 0 mm
10:42 -7.6 °C -11.7 °C 34716.7 hPa NNW 18.2 km/h 28.5 km/h 62 % 0 mm
10:47 -7.6 °C -11.7 °C 34716.7 hPa NNW 15.6 km/h 28.5 km/h 62 % 0 mm
10:52 -7.3 °C -11.6 °C 34716.7 hPa NE 12.9 km/h 28.5 km/h 61 % 0 mm
10:57 -7.3 °C -11.4 °C 34716.7 hPa NNW 10.3 km/h 25.9 km/h 62 % 0 mm
11:02 -7.3 °C -11.4 °C 34716.7 hPa NNE 7.7 km/h 25.9 km/h 62 % 0 mm
11:07 -7.1 °C -11.1 °C 34716.7 hPa North 15.6 km/h 25.9 km/h 63 % 0 mm
11:12 -7.1 °C -11.3 °C 34716.7 hPa Calm   28.5 km/h 62 % 0 mm
11:22 -7.1 °C -11.4 °C 34716.7 hPa North 7.7 km/h 28.5 km/h 61 % 0 mm
11:27 -7 °C -11.4 °C 34716.7 hPa NE 5.1 km/h 23.3 km/h 60 % 0 mm
11:32 -6.9 °C -11.4 °C 34716.7 hPa North 7.7 km/h 23.3 km/h 59 % 0 mm
11:37 -6.7 °C -11.6 °C 34716.7 hPa NE 10.3 km/h 23.3 km/h 57 % 0 mm
11:42 -6.6 °C -11.9 °C 34716.7 hPa NNW 15.6 km/h 36.2 km/h 54 % 0 mm
11:52 -6.7 °C -11.9 °C 34716.7 hPa NNW 20.8 km/h 36.2 km/h 55 % 0 mm
11:57 -6.7 °C -11.8 °C 34716.7 hPa West 7.7 km/h 25.9 km/h 55 % 0 mm
12:02 -6.5 °C -12 °C 34716.7 hPa North 12.9 km/h 25.9 km/h 53 % 0 mm
12:07 -6.6 °C -11.9 °C 34703.1 hPa NE 10.3 km/h 25.9 km/h 54 % 0 mm
12:12 -6.5 °C -12 °C 34716.7 hPa North 10.3 km/h 25.9 km/h 53 % 0 mm
12:17 -6.4 °C -11.7 °C 34716.7 hPa WNW 10.3 km/h 28.5 km/h 54 % 0 mm
12:22 -6.3 °C -11.8 °C 34716.7 hPa NNE 12.9 km/h 28.5 km/h 53 % 0 mm
12:27 -6.4 °C -11.9 °C 34703.1 hPa NNE 10.3 km/h 25.9 km/h 53 % 0 mm
12:32 -6.4 °C -12.1 °C 34703.1 hPa WSW 2.6 km/h 25.9 km/h 52 % 0 mm
12:37 -6.2 °C -12.1 °C 34703.1 hPa NW 12.9 km/h 25.9 km/h 51 % 0 mm
12:42 -6.2 °C -11.8 °C 34703.1 hPa Calm   38.8 km/h 52 % 0 mm
12:47 -6.2 °C -12.2 °C 34703.1 hPa ENE 23.3 km/h 38.8 km/h 50 % 0 mm
12:52 -6.1 °C -12.1 °C 34703.1 hPa North 18.2 km/h 38.8 km/h 50 % 0 mm
12:57 -5.9 °C -11.9 °C 34703.1 hPa NNW 5.1 km/h 33.6 km/h 50 % 0 mm
13:02 -5.9 °C -11.9 °C 34703.1 hPa North 12.9 km/h 28.5 km/h 50 % 0 mm
13:07 -6.1 °C -12.1 °C 34703.1 hPa NNE 20.8 km/h 36.2 km/h 50 % 0 mm
13:12 -6.2 °C -12.5 °C 34703.1 hPa NNE 12.9 km/h 36.2 km/h 48 % 0 mm
13:17 -6.1 °C -12.4 °C 34703.1 hPa West 2.6 km/h 36.2 km/h 48 % 0 mm
13:22 -5.9 °C -12.3 °C 34693 hPa NW 5.1 km/h 23.3 km/h 48 % 0 mm
13:27 -5.8 °C -12.6 °C 34693 hPa NNW 5.1 km/h 23.3 km/h 46 % 0 mm
13:32 -5.7 °C -12.4 °C 34693 hPa NNE 15.6 km/h 25.9 km/h 46 % 0 mm
13:37 -5.8 °C -12.5 °C 34693 hPa North 7.7 km/h 25.9 km/h 46 % 0 mm
13:42 -5.7 °C -12.4 °C 34693 hPa ESE 2.6 km/h 25.9 km/h 46 % 0 mm
13:47 -5.4 °C -12.6 °C 34693 hPa WSW 5.1 km/h 23.3 km/h 44 % 0 mm
13:52 -5.4 °C -12.4 °C 34693 hPa WNW 5.1 km/h 23.3 km/h 45 % 0 mm
13:57 -5.5 °C -12.8 °C 34682.8 hPa NW 5.1 km/h 23.3 km/h 43 % 0 mm
14:02 -5.6 °C -12.5 °C 34682.8 hPa Calm   20.8 km/h 45 % 0 mm
14:07 -5.3 °C -12.3 °C 34682.8 hPa NE 7.7 km/h 20.8 km/h 45 % 0 mm
14:12 -5.2 °C -12.2 °C 34682.8 hPa NNW 10.3 km/h 20.8 km/h 45 % 0 mm
14:17 -5.4 °C -12.5 °C 34682.8 hPa North 12.9 km/h 20.8 km/h 44 % 0 mm
14:22 -5.5 °C -12.8 °C 34682.8 hPa WSW 5.1 km/h 20.8 km/h 43 % 0 mm
14:27 -5.5 °C -12.8 °C 34682.8 hPa NNW 2.6 km/h 20.8 km/h 43 % 0 mm
14:32 -5.4 °C -12.7 °C 34682.8 hPa North 5.1 km/h 20.8 km/h 43 % 0 mm
14:37 -5.3 °C -12.5 °C 34682.8 hPa Calm   20.8 km/h 44 % 0 mm
14:42 -5.2 °C -12.7 °C 34682.8 hPa East 10.3 km/h 20.8 km/h 42 % 0 mm
14:47 -5.2 °C -12.6 °C 34682.8 hPa NE 12.9 km/h 12.9 km/h 43 % 0 mm
14:52 -5.2 °C -12.3 °C 34682.8 hPa NNE 2.6 km/h 23.3 km/h 44 % 0 mm
14:57 -5.2 °C -12.8 °C 34669.3 hPa NE 2.6 km/h 23.3 km/h 42 % 0 mm
15:02 -5.2 °C -12.6 °C 34669.3 hPa Calm   23.3 km/h 43 % 0 mm
15:07 -5.1 °C -12.6 °C 34669.3 hPa NNE 10.3 km/h 25.9 km/h 42 % 0 mm
15:12 -5.1 °C -12.4 °C 34669.3 hPa NNW 10.3 km/h 25.9 km/h 43 % 0 mm
15:17 -5.1 °C -12.6 °C 34682.8 hPa WNW 5.1 km/h 25.9 km/h 42 % 0 mm
15:22 -5.1 °C -12.8 °C 34669.3 hPa East 5.1 km/h 23.3 km/h 41 % 0 mm
15:32 -5.1 °C -12.8 °C 34669.3 hPa NNW 7.7 km/h 25.9 km/h 41 % 0 mm
15:37 -5.1 °C -13.1 °C 34669.3 hPa West 7.7 km/h 28.5 km/h 40 % 0 mm
15:42 -5 °C -12.6 °C 34669.3 hPa NNW 7.7 km/h 28.5 km/h 42 % 0 mm
15:47 -4.8 °C -12.8 °C 34669.3 hPa WNW 7.7 km/h 20.8 km/h 40 % 0 mm
15:52 -4.7 °C -12.9 °C 34669.3 hPa Calm   20.8 km/h 39 % 0 mm
15:57 -4.8 °C -12.6 °C 34659.1 hPa Calm   20.8 km/h 41 % 0 mm
16:02 -4.6 °C -12.4 °C 34669.3 hPa North 15.6 km/h 20.8 km/h 41 % 0 mm
16:07 -4.8 °C -12.8 °C 34669.3 hPa East 2.6 km/h 25.9 km/h 40 % 0 mm
16:12 -4.9 °C -12.9 °C 34659.1 hPa NNW 2.6 km/h 28.5 km/h 40 % 0 mm
16:17 -4.9 °C -12.7 °C 34659.1 hPa ENE 12.9 km/h 28.5 km/h 41 % 0 mm
16:22 -5 °C -12.9 °C 34659.1 hPa NNE 12.9 km/h 31.1 km/h 40 % 0 mm
16:32 -4.9 °C -13.1 °C 34659.1 hPa NNW 2.6 km/h 31.1 km/h 39 % 0 mm
16:37 -4.9 °C -13.1 °C 34659.1 hPa NNE 7.7 km/h 31.1 km/h 39 % 0 mm
16:42 -4.9 °C -13.1 °C 34659.1 hPa Calm   31.1 km/h 39 % 0 mm
16:47 -4.8 °C -12.6 °C 34659.1 hPa East 12.9 km/h 28.5 km/h 41 % 0 mm
16:52 -4.9 °C -12.9 °C 34659.1 hPa ENE 5.1 km/h 23.3 km/h 40 % 0 mm
17:02 -4.7 °C -12.9 °C 34659.1 hPa NNE 10.3 km/h 28.5 km/h 39 % 0 mm
17:12 -4.8 °C -13 °C 34659.1 hPa NW 2.6 km/h 28.5 km/h 39 % 0 mm
17:17 -4.8 °C -13.2 °C 34645.6 hPa NNE 7.7 km/h 20.8 km/h 38 % 0 mm
17:22 -4.7 °C -12.9 °C 34645.6 hPa Calm   20.8 km/h 39 % 0 mm
17:27 -4.6 °C -13 °C 34645.6 hPa Calm   20.8 km/h 38 % 0 mm
17:32 -4.6 °C -13 °C 34645.6 hPa NNE 7.7 km/h 20.8 km/h 38 % 0 mm
17:37 -4.6 °C -13.3 °C 34645.6 hPa NNE 18.2 km/h 20.8 km/h 37 % 0 mm
17:42 -4.8 °C -12.9 °C 34645.6 hPa NW 2.6 km/h 31.1 km/h 39 % 0 mm
17:47 -4.8 °C -13 °C 34645.6 hPa NE 12.9 km/h 31.1 km/h 39 % 0 mm
17:52 -4.8 °C -13 °C 34645.6 hPa ESE 15.6 km/h 31.1 km/h 39 % 0 mm
17:57 -4.8 °C -13 °C 34645.6 hPa East 15.6 km/h 23.3 km/h 39 % 0 mm
18:02 -4.8 °C -13.2 °C 34645.6 hPa NE 15.6 km/h 23.3 km/h 38 % 0 mm
18:07 -4.9 °C -13.1 °C 34645.6 hPa NNE 15.6 km/h 23.3 km/h 39 % 0 mm
18:12 -4.8 °C -13 °C 34645.6 hPa ENE 12.9 km/h 31.1 km/h 39 % 0 mm
18:17 -4.9 °C -13.1 °C 34645.6 hPa NNE 7.7 km/h 31.1 km/h 39 % 0 mm
18:22 -4.9 °C -13.1 °C 34645.6 hPa East 7.7 km/h 31.1 km/h 39 % 0 mm
18:27 -4.9 °C -13.1 °C 34645.6 hPa ENE 10.3 km/h 25.9 km/h 39 % 0 mm
18:32 -4.9 °C -13.1 °C 34645.6 hPa ENE 10.3 km/h 28.5 km/h 39 % 0 mm
18:37 -4.9 °C -13.1 °C 34645.6 hPa NNW 5.1 km/h 31.1 km/h 39 % 0 mm
18:47 -4.8 °C -13 °C 34645.6 hPa NE 12.9 km/h 25.9 km/h 39 % 0 mm
18:52 -4.8 °C -13 °C 34645.6 hPa ENE 12.9 km/h 25.9 km/h 39 % 0 mm
18:57 -4.9 °C -13.3 °C 34645.6 hPa North 5.1 km/h 25.9 km/h 38 % 0 mm
19:02 -4.9 °C -13.3 °C 34645.6 hPa ENE 5.1 km/h 33.6 km/h 38 % 0 mm
19:07 -5 °C -13.2 °C 34645.6 hPa NE 10.3 km/h 33.6 km/h 39 % 0 mm
19:12 -5.1 °C -13 °C 34645.6 hPa East 15.6 km/h 28.5 km/h 40 % 0 mm
19:17 -5.1 °C -12.8 °C 34645.6 hPa ENE 12.9 km/h 28.5 km/h 41 % 0 mm
19:27 -5.1 °C -13 °C 34645.6 hPa NE 5.1 km/h 23.3 km/h 40 % 0 mm
19:32 -5.1 °C -13.2 °C 34645.6 hPa NE 23.3 km/h 23.3 km/h 39 % 0 mm
19:37 -5.1 °C -13.2 °C 34645.6 hPa NE 18.2 km/h 23.3 km/h 39 % 0 mm
19:42 -5.1 °C -13.1 °C 34645.6 hPa NE 2.6 km/h 23.3 km/h 40 % 0 mm
19:47 -5.1 °C -13.3 °C 34645.6 hPa NE 12.9 km/h 23.3 km/h 39 % 0 mm
19:52 -5.2 °C -13.1 °C 34635.4 hPa NNE 10.3 km/h 23.3 km/h 40 % 0 mm
19:57 -5.2 °C -13.3 °C 34635.4 hPa NE 7.7 km/h 20.8 km/h 39 % 0 mm
20:02 -5.2 °C -13.2 °C 34635.4 hPa ENE 7.7 km/h 20.8 km/h 40 % 0 mm
20:07 -5.3 °C -13 °C 34635.4 hPa NE 5.1 km/h 18.2 km/h 41 % 0 mm
20:12 -5.3 °C -12.8 °C 34635.4 hPa ENE 7.7 km/h 15.6 km/h 42 % 0 mm
20:22 -5.6 °C -12.9 °C 34635.4 hPa ENE 7.7 km/h 18.2 km/h 43 % 0 mm
20:27 -5.6 °C -12.7 °C 34635.4 hPa NE 7.7 km/h 18.2 km/h 44 % 0 mm
20:32 -5.7 °C -12.8 °C 34635.4 hPa NE 7.7 km/h 18.2 km/h 44 % 0 mm
20:37 -5.7 °C -12.8 °C 34635.4 hPa NE 5.1 km/h 12.9 km/h 44 % 0 mm
20:42 -5.7 °C -12.8 °C 34635.4 hPa NE 12.9 km/h 15.6 km/h 44 % 0 mm
20:47 -5.8 °C -12.9 °C 34635.4 hPa NNE 5.1 km/h 15.6 km/h 44 % 0 mm
20:52 -5.9 °C -12.8 °C 34635.4 hPa NE 12.9 km/h 18.2 km/h 45 % 0 mm
20:57 -6.1 °C -12.8 °C 34635.4 hPa NE 10.3 km/h 18.2 km/h 46 % 0 mm
21:02 -6.2 °C -12.7 °C 34635.4 hPa NE 7.7 km/h 18.2 km/h 47 % 0 mm
21:07 -6.3 °C -12.7 °C 34635.4 hPa NNE 5.1 km/h 12.9 km/h 48 % 0 mm
21:12 -6.5 °C -12.7 °C 34635.4 hPa NE 5.1 km/h 12.9 km/h 49 % 0 mm
21:17 -6.7 °C -12.7 °C 34635.4 hPa NE 2.6 km/h 12.9 km/h 50 % 0 mm
21:22 -6.8 °C -12.6 °C 34635.4 hPa NE 5.1 km/h 10.3 km/h 51 % 0 mm
21:27 -7 °C -12.8 °C 34635.4 hPa NNE 5.1 km/h 7.7 km/h 51 % 0 mm
21:32 -7.1 °C -12.7 °C 34635.4 hPa NE 2.6 km/h 10.3 km/h 52 % 0 mm
21:37 -7.2 °C -12.8 °C 34635.4 hPa Calm   10.3 km/h 52 % 0 mm
21:42 -7.3 °C -12.8 °C 34635.4 hPa North 2.6 km/h 7.7 km/h 53 % 0 mm
21:47 -7.4 °C -12.8 °C 34635.4 hPa North 2.6 km/h 5.1 km/h 53 % 0 mm
21:52 -7.6 °C -12.8 °C 34645.6 hPa NNW 2.6 km/h 5.1 km/h 54 % 0 mm
21:57 -7.7 °C -12.8 °C 34645.6 hPa NNW 5.1 km/h 5.1 km/h 55 % 0 mm
22:02 -7.7 °C -12.7 °C 34645.6 hPa Calm   7.7 km/h 56 % 0 mm
22:07 -7.8 °C -12.8 °C 34635.4 hPa Calm   7.7 km/h 56 % 0 mm
22:12 -7.9 °C -12.7 °C 34645.6 hPa Calm   7.7 km/h 57 % 0 mm
22:17 -8 °C -12.8 °C 34635.4 hPa Calm   7.7 km/h 57 % 0 mm
22:22 -8.1 °C -12.7 °C 34645.6 hPa Calm   7.7 km/h 58 % 0 mm
22:27 -8.2 °C -12.7 °C 34635.4 hPa Calm   7.7 km/h 59 % 0 mm
22:32 -8.3 °C -12.8 °C 34635.4 hPa Calm   5.1 km/h 59 % 0 mm
22:37 -8.4 °C -12.7 °C 34635.4 hPa Calm   2.6 km/h 60 % 0 mm
22:42 -8.5 °C -12.7 °C 34635.4 hPa Calm   2.6 km/h 61 % 0 mm
22:47 -8.5 °C -12.7 °C 34635.4 hPa Calm   5.1 km/h 61 % 0 mm
22:52 -8.6 °C -12.8 °C 34635.4 hPa Calm   5.1 km/h 61 % 0 mm
22:57 -8.6 °C -12.8 °C 34635.4 hPa NW 2.6 km/h 5.1 km/h 61 % 0 mm
23:02 -8.6 °C -12.8 °C 34635.4 hPa Calm   7.7 km/h 61 % 0 mm
23:07 -8.6 °C -12.8 °C 34635.4 hPa NNW 2.6 km/h 7.7 km/h 61 % 0 mm
23:12 -8.7 °C -12.7 °C 34635.4 hPa Calm   5.1 km/h 62 % 0 mm
23:17 -8.7 °C -12.8 °C 34625.2 hPa Calm   5.1 km/h 62 % 0 mm
23:22 -8.8 °C -12.7 °C 34625.2 hPa NNW 2.6 km/h 5.1 km/h 63 % 0 mm
23:32 -8.8 °C -12.8 °C 34625.2 hPa North 5.1 km/h 5.1 km/h 62 % 0 mm
23:37 -8.8 °C -12.9 °C 34625.2 hPa Calm   5.1 km/h 62 % 0 mm
23:42 -8.8 °C -12.9 °C 34625.2 hPa Calm   5.1 km/h 62 % 0 mm
23:47 -8.9 °C -13 °C 34625.2 hPa Calm   5.1 km/h 62 % 0 mm
23:52 -9 °C -12.9 °C 34611.7 hPa Calm   5.1 km/h 63 % 0 mm
23:57 -9.1 °C -12.9 °C 34625.2 hPa Calm   2.6 km/h 64 % 0 mm
Meteo18
Compliments of Weather Underground - 4 mb

Script developed by  Jim McMurry - jmcmurry@mwt.net Adapted for the template by  Wim van der Kuil - Leuven-Template.eu

You find our weather info also at:

European Weather Network

Weather Underground

Equipment we use:

Weather-station
Davis Vue

Weather-program
Meteobridge

Weather-server
Raspberry PI 2 B+

Provider
1 and 1

Davis Vue

Meteobridge

Raspberry PI 2 B+

1 and 1